Tracking 34138 objects as of 17-May-2026
HD Live streaming from Space Station
objects crossing your sky now

STARLINK-5363

Track STARLINK-5363 now!
10-day predictions
STARLINK-5363 is classified as:


NORAD ID: 55497
Int'l Code: 2023-015BA
Perigee: 489.1 km
Apogee: 491.3 km
Inclination: 43.0 °
Period: 94.3 minutes
Semi major axis: 6861 km
RCS: Unknown
Launch date: February 2, 2023
Source: United States (US)
Launch site: AIR FORCE EASTERN TEST RANGE (AFETR)
Your satellite tracking list
Your tracking list is empty




NASA's NSSDC Master Catalog

Two Line Element Set (TLE):
1 55497U 23015BA  26136.82300127 -.00000371  00000-0 -39375-5 0  9997
2 55497  43.0063 315.0899 0001604 284.6657  75.4017 15.27574945181016
Source of the keplerian elements: AFSPC